www.pogodaiklimat.ru

Погода и климат >> Архив погоды >> Нигер >> Gaya


ПОГОДА в Gaya

  • Прогноз погоды в Gaya
  • Монитор погоды в Gaya
  • Климат города

АРХИВ ПОГОДЫ в Gaya

Время (UTC), дата Ветер
(напр.,м/с)
 
Видим.   Явления Облачность Т
(С)
Тd
(С)
f
(%)
Тe
(С)
Тes
(С)
Комфортность P
(гПа)
Po
(гПа)
Тmin
(С)
Tmax
(С)
R
(мм)
R24
(мм)
S
(см)
03 13.07 штиль 0 15 км 9/0
[Ac lent Ci sp]
+23.4 +22.2 93 +32 +32 очень
душно
1011.4 988.4
06 13.07 штиль 0 15 км 9/0
[Ac As Ci sp]
+23.4 +22.2 93 +32 +32 очень
душно
1011.5 988.6 +22.2 20
09 13.07 штиль 0 10 км 9/0
[Ac lent Cs]
+26.5 +22.9 81 +35 +48 очень
душно
1013.3 990.4
12 13.07 штиль 0 15 км 6/1 1000 м
[Cu hum Ac lent Ci fib]
+30.0 +24.4 72 +42 +61 опасность
перегрева
1012.8 990.0
15 13.07 штиль 0 15 км 6/1 1200 м
[Cu hum Ac lent Ci fib]
+32.5 +24.9 64 +46 +55 опасность
перегрева
1010.3 987.7
18 13.07 штиль 0 15 км 9/1 1200 м
[Cu hum Cs]
+31.5 +24.5 66 +44 +44 опасность
перегрева
1009.9 987.3 +33.5
21 13.07 Ю 4 10 км 4/0
[Ci fib]
+28.5 +25.0 81 +41 +41 опасность
перегрева
1011.2 988.6
03 14.07 штиль 0 10 км 6/0
[Ci fib]
+26.0 +24.6 92 +37 +37 очень
душно
1010.1 987.8
06 14.07 штиль 0 15 км 9/0
[Cs]
+25.0 +24.3 96 +35 +35 очень
душно
1010.7 988.1 +24.3
09 14.07 штиль 0 15 км 9/0
[Cs]
+28.0 +25.2 85 +41 +55 опасность
перегрева
1011.3 988.7
12 14.07 З 4 15 км 9/0
[Cs]
+32.4 +25.1 65 +46 +58 опасность
перегрева
1010.2 987.7
15 14.07 штиль 0 15 км 9/1 1200 м
[Cu hum Cs]
+34.0 +24.8 59 +47 +58 опасность
перегрева
1007.6 985.2
18 14.07 штиль 0 15 км 9/0
[Ac lent Cs]
+32.4 +25.5 67 +47 +47 опасность
перегрева
1007.5 985.0 +35.0
21 14.07 штиль 0 15 км 9/0
[Ac lent Cs]
+30.0 +25.7 78 +45 +45 опасность
перегрева
1008.8 986.3
03 15.07 штиль 0 15 км зарница 9/1 1200 м
[Cb cap Ac lent Cs]
+27.4 +24.6 85 +39 +39 очень
душно
1008.2 985.8
06 15.07 штиль 0 15 км 9/1 1200 м
[Cb cap Ac As Ci sp]
+26.4 +23.8 86 +36 +37 очень
душно
1009.1 986.7 +25.6
09 15.07 ЮЗ 4 15 км 9/6 1200 м
[Cu hum Ci sp]
+29.0 +24.8 78 +41 +44 опасность
перегрева
1010.6 988.1
12 15.07 З 6 15 км 9/9 870 м
[Cu med, cong Ac trans Cs]
+31.5 +25.3 70 +46 +47 опасность
перегрева
1010.9 988.5
15 15.07 З 4 15 км гроза без осадков 9/9 1000 м
[Cb cap Ci fib]
+32.0 +25.1 67 +46 +46 опасность
перегрева
1008.7 986.3
18 15.07 штиль 0 15 км в посл. час дождь {гроза} 9/1 1200 м
[Cb cap Ac cuf Cs]
+28.0 +26.0 89 +42 +42 опасность
перегрева
1008.3 985.6 +33.0 3
21 15.07 штиль 0 10 км 9/0
[Cs]
+27.5 +25.0 86 +39 +39 очень
душно
1010.6 988.3
03 16.07 штиль 0 10 км зарница 9/1 1200 м
[Cb cap Cs]
+26.0 +24.6 92 +37 +37 очень
душно
1011.0 988.4
06 16.07 С 16 15 км гроза, ливневой дождь 10/3 1200 м
[Cb cap Ac As]
+23.0 +21.5 91 +31 +31 очень
душно
1013.2 990.4 +20.5 4
09 16.07 штиль 12 10 км гроза, ливневой дождь 10/1 1200 м
[Cb cap Ac As]
+22.4 +21.8 96 +30 +34 очень
душно
1013.7 990.8
12 16.07 З 2 10 км {гроза, дождь} 9/0
[Ac As Ci sp]
+26.8 +23.0 80 +36 +45 очень
душно
1012.0 989.4 2
15 16.07 штиль 0 15 км 9/4 900 м
[Sc Ac lent Ci sp]
+28.6 +24.9 80 +41 +46 опасность
перегрева
1010.4 987.8
18 16.07 штиль 0 15 км 9/1 1200 м
[Cu med, cong Ac lent Ci sp]
+27.0 +24.7 87 +38 +38 очень
душно
1010.3 987.5 +30.0 2
21 16.07 штиль 0 15 км 9/0
[Ac lent Cs]
+25.4 +24.3 94 +35 +35 очень
душно
1011.3 988.6
03 17.07 штиль 0 15 км 9/0
[Ac lent Cs]
+24.0 +23.4 96 +32 +32 очень
душно
1011.3 988.6
06 17.07 штиль 0 15 км 9/0
[Ac lent Ci sp]
+23.6 +22.7 95 +31 +31 очень
душно
1011.5 988.7 +22.8 2
09 17.07 штиль 0 15 км 9/0
[Cs]
+27.0 +24.4 86 +38 +52 опасность
солнечного
удара
1013.4 990.6
12 17.07 Ю 6 15 км 9/6 1000 м
[Cu hum Ci fib]
+30.5 +24.2 69 +42 +45 опасность
перегрева
1012.0 989.3
18 17.07 штиль 0 15 км 9/1 1200 м
[Cu hum Cs]
+31.0 +25.2 71 +45 +45 опасность
перегрева
1009.1 986.5 +32.6
21 17.07 штиль 0 10 км 6/0
[Cs]
+28.8 +25.7 83 +43 +43 опасность
перегрева
1011.2 988.6
03 18.07 З 6 10 км зарница 9/1 1200 м
[Cb cap Cs]
+27.0 +24.2 85 +38 +38 очень
душно
1009.7 987.2
06 18.07 Ю 4 15 км гроза, ливневой дождь 10/3 1200 м
[Cb cap Ac As]
+22.5 +22.5 100 +30 +31 очень
душно
1013.2 990.4 +21.4 10
09 18.07 штиль 0 10 км слабый ливневой дождь, в посл. час гроза 10/1 900 м
[Sc Ac As]
+23.0 +23.0 100 +32 +37 очень
душно
1014.3 991.4
12 18.07 штиль 0 15 км {гроза, дождь} 9/1 1200 м
[Cu med, cong Ac lent Ci sp]
+27.4 +23.7 80 +37 +52 опасность
солнечного
удара
1012.0 989.3 20
15 18.07 штиль 0 15 км 9/1 1200 м
[Cu med, cong Ac lent Ci sp]
+29.2 +23.2 70 +39 +46 очень
душно
1010.8 988.2
18 18.07 штиль 0 15 км 9/1 1200 м
[Cb cap Ac lent Ci sp]
+28.0 +24.5 81 +39 +39 очень
душно
1010.2 987.4 +30.2 20
21 18.07 штиль 0 15 км зарница 9/1 1200 м
[Cb cap Ac lent Ci sp]
+26.2 +24.5 90 +37 +37 очень
душно
1011.8 988.9
03 19.07 штиль 0 15 км 9/0
[Ac lent Cs]
+25.6 +24.7 95 +36 +36 очень
душно
1010.6 988.0
09 19.07 штиль 0 15 км 6/6 1000 м
[Cu hum Ci fib]
+28.0 +24.9 83 +40 +47 очень
душно
1012.2 989.5
12 19.07 штиль 0 15 км 9/4 1000 м
[Cu med, cong Cs]
+31.0 +25.4 72 +45 +60 опасность
перегрева
1011.4 988.8
15 19.07 штиль 0 15 км 8/8 1200 м
[Cu med, cong Ci fib]
+33.0 +24.6 61 +46 +48 опасность
перегрева
1008.7 986.3
18 19.07 Ю 2 15 км 8/1 1200 м
[Cb cap Cs]
+32.0 +25.1 67 +46 +46 опасность
перегрева
1008.4 985.8 +33.5
21 19.07 Ю 2 10 км 6/0
[Ci fib]
+29.5 +24.6 75 +42 +42 опасность
перегрева
1010.0 987.5

 

Местоположение метеостанции Gaya (Нигер): широта 11.88 долгота 3.45 высота над уровнем моря 203 м.

В архиве по умолчанию представлена погода в Gaya за последнюю неделю. Архивные данные за месяц целиком и за предыдущие месяцы, начиная с января 2011 года, Вы можете получить, выбрав интересующий диапазон дат из раскрывающегося списка и нажав кнопку "Ввод!".


*Определитесь, кто Вы:
робот инопланетянин человек

Внимание! Время в таблицах - всемирное. Для получения местного времени необходимо прибавить поправку, которая в Gaya равна 1 ч.

Смотрите также архив погоды в соседних городах и на ближайших метеорологических станциях:

Погода в Kandi (Бенин) (101 км)
Погода в Dosso (Нигер) (129 км)
Погода в Yelwa (Нигерия) (180 км)
Погода в Niamey (Нигер) (226 км)
Погода в Natitingou (Бенин) (285 км)
Погода в Birni-Nkonni (Нигер) (289 км)
Погода в Parakou (Бенин) (296 км)
Погода в Fada N`Gourma (Буркина-Фасо) (336 км)
Погода в Tillabery (Нигер) (337 км)
Погода в Niamtougou (Того) (348 км)

Пояснения к столбцам:

Ветер - указаны скорость ветра в м/с - средняя за 10 мин, порывы в срок и между сроками (в фигурных скобках) и направление, откуда дует ветер: С - северный, СВ - северо-восточный, В - восточный, ЮВ - юго-восточный, Ю - южный, ЮЗ - юго-западный, З - западный, СЗ - северо-западный.
Видимость - горизонтальная дальность видимости в метрах или километрах. При видимости от 1 до 10 км при отсутствии осадков обычно наблюдается дымка, при ухудшении видимости до 1 км и менее - туман. В сухую погоду видимость может ухудшаться дымом, пылью или мглою.
Явления - указаны атмосферные явления, наблюдавшиеся в срок или в последний час перед сроком; фигурными скобками обозначены явления, наблюдавшиеся между сроками (за 1-3 часа до срока); квадратными скобками обозначены град или гололедные отложения с указанием их диаметра в мм.
Облачность - указаны через наклонную черту общая и нижняя облачность в баллах и высота нижней границы облаков в метрах; квадратными скобками обозначены формы облаков: Ci - перистые, Cs - перисто-слоистые, Cc - перисто-кучевые, Ac - высококучевые, As - высокослоистые, Sc - слоисто-кучевые, Ns - слоисто-дождевые, Cu - кучевые, Cb - кучево-дождевые. Подробнее классификацию облаков см. в Атласе облаков (PDF).
T - Температура воздуха - температура, измеренная на высоте 2 м над землей.
Td - Температура точки росы - температура, при понижении до которой содержащийся в воздухе водяной пар достигнет насыщения.
f - Относительная влажность воздуха - влажноcть воздуха, измеренная на высоте 2 м над землей.
Te - Эффективная температура - температура, которую ощущает одетый по сезону человек в тени. Характеристика душности погоды. При расчете учитывается влияние влажности воздуха и скорости ветра на теплоощущения человека.
Tes - Эффективная температура на солнце - температура, которую ощущает человек, с поправкой на солнечный нагрев. Характеристика знойности погоды. Зависит от высоты солнца над горизонтом, облачности и скорости ветра. Ночью, в пасмурную погоду, а также при ветре 12 м/с и более поправка равна нулю.
P - Атмосферное давление - приведенное к уровню моря атмосферное давление.
Po - Атмосферное давление - измеренное на уровне метеостанции атмосферное давление.
Tmin - Минимальная температура - минимум температуры воздуха на высоте 2 м над землей.
Tmax - Максимальная температура - максимум температуры воздуха на высоте 2 м над землей.
R - Количество осадков - Количество выпавших осадков за период времени, мм. При наведении курсора мыши на число - период времени, за который выпало указанное количество осадков.
R24 - Количество осадков - Количество выпавших осадков за 24 часа, мм.
S - Снежный покров - Высота снежного покрова, см. При наведении курсора мыши на число - состояние снежного покрова и степень покрытия местности в баллах.